COSMOS 1867 COOLANT

Satellite information

Favourite Embed

Satellite Type and Status

DEBRISIN ORBIT

Key statistics

Satellite COSMOS 1867 COOLANT at a glance.

Uptime

14037

Days in orbit

Revolutions

≈ 14.3

Per day

Orbit

LEO

Low Earth Orbit

Inclination

65.0

Latest

Satellite identification and parameters

Extended collection of information and parameters for COSMOS 1867 COOLANT.

Object identification

Identified? True

Debris? False

Object name: COSMOS 1867 COOLANT

International designator: 1987-060AJ

Object number (NORAD): 39671

Object ID (CCSDS): 39671

Country: COMMONWEALTH OF INDEPENDENT STATES (CIS)

Current information (Y/N): Y

RCS size: SMALL

Orbital parameters

Period: 100.404 minutes

Inclination: 65.0091 deg

SMA: 7155.831 km

Apoapsis: 787.148 km

Periapsis: 768.245 km

RAAN: 178.0812 deg

Eccentricy: 0.00132085

Argument of periapsis: 273.175 deg

Mean anomaly: 86.7824 deg

Mean motion: 14.34209579 rev/day

Mean motion (dot): 0.00000586 rev/day2

B* drag term: 0.00024429883 1/REarth

Two-line elements (TLE)

Creation date: Dec. 11, 2025, 10:54 a.m.

Reference frame: TEME

Reference center: EARTH

Epoch: Dec. 11, 2025, 3:48 a.m. UTC

TLE line 0: 0 COSMOS 1867 COOLANT

TLE line 1: 1 39671U 87060AJ 25345.15878856 .00000586 00000-0 24430-3 0 9999

TLE line 2: 2 39671 65.0091 178.0812 0013208 273.1750 86.7824 14.34209579609683

Live tracking on map

Real-time ground track for satellite COSMOS 1867 COOLANT.

In-orbit conjunctions

A list of the most updated potential collisions computed for object COSMOS 1867 COOLANT.

Target Orbit TCA Probability of collision Miss distance Type
INTERCOSMOS 22 LEO 2025-07-17 14:15:53 0.003054844 69.0 (m) PAYLOAD
COSMOS 1867 COOLANT LEO 2025-05-23 20:18:44 0.0001887016 483.0 (m) DEBRIS
FENGYUN 1C DEB SSO 2024-07-04 05:15:45 0.0001008827 750.0 (m) DEBRIS

Associated space launch

Nuclear-powered magnetospheric research satellite

COSMOS 1867 COOLANT was lifted into orbit during the mission ‘Tsiklon-2 | Plasma-A 2’, on board a Tsiklon-2 space rocket.

The launch took place on July 10, 1987, 3:35 p.m. from 90.

For more information about the launch, click the button.

Launch to space Tsiklon-2 | Plasma-A 2
Tsiklon-2 | Plasma-A 2

Agency: N/A

Status: Launch Successful

Launch date: July 10, 1987, 3:35 p.m. UTC

Rocket: Tsiklon-2

Launch pad: 90

Location: Baikonur Cosmodrome, Republic of Kazakhstan

...

Latest news about this satellite

There are no fresh news available about this satellite. Check back as we update our databases every day.


Newsletter sign-up

Weekly statistics, charts and insights to help you stay on top of the space industry.